Погода в Сниже

Россия / Курская область     52°07′04″N   35°11′16″E
темп.,
°C
ветер,
м/с
пор.,
м/с
влажн.,
%
обл.,
%
осадки,
мм/ч
давл.,
гПа
погр.,
м
4 марта, чт
чт400:00−2зюз4109312 0.0 1018252
03:00−3зюз510926 0.0 1017247
06:00−5юз511920 0.0 1014231
09:00−3юз715890 0.0 1012375
12:000юз712910 0.0 1009518
15:000юз7119928 0.0 1007490
18:00+1зюз71198100 0.0 1005627
21:00+1зюз51198100 0.2 1004425
5 марта, пт
пт500:00+1з41098100 0.1 1005503
03:00−2зсз499499 0.1 1006250
06:00−1зсз499396 0.0 1008586
09:00−4ссз479279 0.0 1010212
12:00−2сз238643 0.0 1011371
15:00−1зсз238565 0.0 1012579
18:00−2з2289100 0.1 101323
21:00−4ссз2387100 0.1 101523
6 марта, сб
сб600:00−5ссз2390100 0.0 101636
03:00−6сз2392100 0.0 101744
06:00−7зсз3491100 0.0 101684
09:00−6сз598898 0.0 1017577
12:00−5сз698392 0.0 10181005
15:00−4сз7117596 0.3 10181311
18:00−6сз5118174 0.1 1019519
21:00−7зсз498637 0.1 1021225
7 марта, вс
вс700:00−8з37900 0.0 1022145
03:00−8зюз49890 0.0 1021208
06:00−7юз6138415 0.0 1018359
09:00−5юз8167857 0.0 1015663
12:00−3зюз111777100 0.0 10111080
15:00−1зюз111882100 0.3 10081347
18:00−1зюз91682100 0.1 10071028
21:00−1зюз8168998 0.2 1007786
8 марта, пн
пн800:00−2зюз7149498 1.0 1006775
03:00−2зюз8159399 1.3 1005929
06:00−3зсз61294100 0.8 1004783
09:00−4зсз7138395 0.9 10061010
12:00−5сз586755 0.0 1009814
15:00−5зсз357028 0.0 1011911
18:00−7зсз23800 0.0 101227
21:00−9ссз22850 0.0 101322